Year,Month,Day,Hour,Minute,Value (Times are PST for windgust in km/hr)
2018,06,05,00,15,4.80
2018,06,05,00,16,4.80
2018,06,05,00,17,4.80
2018,06,05,00,18,4.80
2018,06,05,00,19,4.80
2018,06,05,00,20,3.20
2018,06,05,00,21,4.80
2018,06,05,00,22,4.80
2018,06,05,00,23,4.80
2018,06,05,00,24,4.80
2018,06,05,00,25,4.80
2018,06,05,00,26,4.80
2018,06,05,00,27,4.80
2018,06,05,00,28,4.80
2018,06,05,00,29,4.80
2018,06,05,00,32,3.20
2018,06,05,00,34,4.80
2018,06,05,00,35,1.60
2018,06,05,00,36,6.40
2018,06,05,00,37,4.80
2018,06,05,00,38,4.80
2018,06,05,00,39,3.20
2018,06,05,00,40,4.80
2018,06,05,00,41,4.80
2018,06,05,00,42,4.80
2018,06,05,00,43,6.40
2018,06,05,00,44,4.80
2018,06,05,00,45,4.80
2018,06,05,00,46,4.80
2018,06,05,00,47,4.80
2018,06,05,00,50,6.40
2018,06,05,00,51,6.40
2018,06,05,00,52,4.80
2018,06,05,00,53,1.60
2018,06,05,00,54,3.20
2018,06,05,00,55,3.20
2018,06,05,00,57,4.80
2018,06,05,00,58,6.40
2018,06,05,00,59,4.80
2018,06,05,01,00,4.80
2018,06,05,01,01,3.20
2018,06,05,01,02,4.80
2018,06,05,01,03,6.40
2018,06,05,01,04,6.40
2018,06,05,01,05,3.20
2018,06,05,01,06,3.20
2018,06,05,01,07,3.20
2018,06,05,01,08,6.40
2018,06,05,01,09,6.40
2018,06,05,01,10,4.80
2018,06,05,01,11,4.80
2018,06,05,01,12,4.80
2018,06,05,01,13,4.80
2018,06,05,01,14,4.80
2018,06,05,01,15,4.80
2018,06,05,01,16,6.40
2018,06,05,01,17,4.80
2018,06,05,01,18,4.80
2018,06,05,01,19,4.80
2018,06,05,01,20,6.40
2018,06,05,01,21,6.40
2018,06,05,01,22,4.80
2018,06,05,01,23,4.80
2018,06,05,01,24,4.80
2018,06,05,01,25,4.80
2018,06,05,01,26,4.80
2018,06,05,01,27,3.20
2018,06,05,01,28,4.80
2018,06,05,01,29,4.80
2018,06,05,01,30,4.80
2018,06,05,01,31,3.20
2018,06,05,01,32,3.20
2018,06,05,01,33,3.20
2018,06,05,01,34,3.20
2018,06,05,01,35,3.20
2018,06,05,01,36,1.60
2018,06,05,02,11,1.60
2018,06,05,03,11,4.80
2018,06,05,03,12,3.20
2018,06,05,03,30,3.20
2018,06,05,03,31,4.80
2018,06,05,03,32,4.80
2018,06,05,03,33,3.20
2018,06,05,03,34,3.20
2018,06,05,03,35,1.60
2018,06,05,03,36,1.60
2018,06,05,03,46,1.60
2018,06,05,03,57,1.60
2018,06,05,03,59,1.60
2018,06,05,04,01,1.60
2018,06,05,04,04,3.20
2018,06,05,04,05,3.20
2018,06,05,04,06,3.20
2018,06,05,04,07,4.80
2018,06,05,04,08,3.20
2018,06,05,04,09,1.60
2018,06,05,04,10,1.60
2018,06,05,04,25,1.60
2018,06,05,04,26,1.60
2018,06,05,04,27,1.60
2018,06,05,04,38,1.60
2018,06,05,04,54,3.20
2018,06,05,04,55,1.60
2018,06,05,05,14,3.20
2018,06,05,05,15,4.80
2018,06,05,05,16,4.80
2018,06,05,05,17,4.80
2018,06,05,05,18,4.80
2018,06,05,05,19,6.40
2018,06,05,05,20,6.40
2018,06,05,05,21,6.40
2018,06,05,05,22,8.10
2018,06,05,05,23,8.10
2018,06,05,05,24,8.10
2018,06,05,05,25,6.40
2018,06,05,05,26,6.40
2018,06,05,05,27,6.40
2018,06,05,05,28,6.40
2018,06,05,05,29,6.40
2018,06,05,05,30,8.10
2018,06,05,05,31,8.10
2018,06,05,05,32,8.10
2018,06,05,05,33,9.60
2018,06,05,05,34,9.60
2018,06,05,05,35,9.60
2018,06,05,05,36,8.10
2018,06,05,05,37,8.10
2018,06,05,05,38,6.40
2018,06,05,05,39,6.40
2018,06,05,05,40,8.10
2018,06,05,05,41,6.40
2018,06,05,05,42,6.40
2018,06,05,05,43,6.40
2018,06,05,05,44,4.80
2018,06,05,05,45,4.80
2018,06,05,05,46,4.80
2018,06,05,05,47,4.80
2018,06,05,05,48,4.80
2018,06,05,05,49,4.80
2018,06,05,05,50,4.80
2018,06,05,05,51,4.80
2018,06,05,05,52,6.40
2018,06,05,05,53,4.80
2018,06,05,05,54,4.80
2018,06,05,05,55,6.40
2018,06,05,05,56,4.80
2018,06,05,05,57,4.80
2018,06,05,05,58,4.80
2018,06,05,05,59,6.40
2018,06,05,06,00,6.40
2018,06,05,06,01,6.40
2018,06,05,06,02,6.40
2018,06,05,06,03,4.80
2018,06,05,06,04,4.80
2018,06,05,06,05,3.20
2018,06,05,06,06,4.80
2018,06,05,06,10,1.60
2018,06,05,06,21,6.40
2018,06,05,06,22,8.10
2018,06,05,06,23,6.40
2018,06,05,06,24,4.80
2018,06,05,06,25,4.80
2018,06,05,06,26,4.80
2018,06,05,06,27,4.80
2018,06,05,06,28,4.80
2018,06,05,06,29,6.40
2018,06,05,06,30,4.80
2018,06,05,06,31,6.40
2018,06,05,06,32,6.40
2018,06,05,06,33,6.40
2018,06,05,06,34,6.40
2018,06,05,06,35,6.40
2018,06,05,06,36,4.80
2018,06,05,06,37,4.80
2018,06,05,06,38,4.80
2018,06,05,06,39,6.40
2018,06,05,06,40,6.40
2018,06,05,06,41,6.40
2018,06,05,06,42,4.80
2018,06,05,06,43,6.40
2018,06,05,06,44,6.40
2018,06,05,06,45,6.40
2018,06,05,06,46,4.80
2018,06,05,06,47,4.80
2018,06,05,06,48,6.40
2018,06,05,06,49,6.40
2018,06,05,06,50,4.80
2018,06,05,06,51,4.80
2018,06,05,06,52,4.80
2018,06,05,06,53,4.80
2018,06,05,06,54,4.80
2018,06,05,06,55,6.40
2018,06,05,06,56,8.10
2018,06,05,06,57,6.40
2018,06,05,06,58,8.10
2018,06,05,06,59,8.10
2018,06,05,07,00,8.10
2018,06,05,07,01,6.40
2018,06,05,07,02,9.60
2018,06,05,07,03,8.10
2018,06,05,07,04,8.10
2018,06,05,07,05,8.10
2018,06,05,07,06,6.40
2018,06,05,07,07,6.40
2018,06,05,07,08,4.80
2018,06,05,07,09,4.80
2018,06,05,07,10,4.80
2018,06,05,07,11,3.20
2018,06,05,07,12,3.20
2018,06,05,07,13,3.20
2018,06,05,07,14,3.20
2018,06,05,07,15,3.20
2018,06,05,07,16,3.20
2018,06,05,07,17,3.20
2018,06,05,07,18,3.20
2018,06,05,07,32,3.20
2018,06,05,07,39,1.60
2018,06,05,07,41,1.60
2018,06,05,07,49,4.80
2018,06,05,07,50,4.80
2018,06,05,07,51,3.20
2018,06,05,07,52,3.20
2018,06,05,07,53,4.80
2018,06,05,07,54,3.20
2018,06,05,07,55,1.60
2018,06,05,08,00,4.80
2018,06,05,08,01,1.60
2018,06,05,08,02,4.80
2018,06,05,08,03,4.80
2018,06,05,08,04,4.80
2018,06,05,08,05,4.80
2018,06,05,08,06,4.80
2018,06,05,08,07,6.40
2018,06,05,08,08,6.40
2018,06,05,08,09,9.60
2018,06,05,08,10,6.40
2018,06,05,08,11,4.80
2018,06,05,08,12,4.80
2018,06,05,08,13,4.80
2018,06,05,08,14,6.40
2018,06,05,08,15,4.80
2018,06,05,08,16,4.80
2018,06,05,08,17,3.20
2018,06,05,08,18,6.40
2018,06,05,08,19,4.80
2018,06,05,08,20,11.30
2018,06,05,08,21,8.10
2018,06,05,08,22,6.40
2018,06,05,08,23,6.40
2018,06,05,08,24,6.40
2018,06,05,08,25,4.80
2018,06,05,08,26,4.80
2018,06,05,08,27,4.80
2018,06,05,08,28,6.40
2018,06,05,08,29,6.40
2018,06,05,08,30,4.80
2018,06,05,08,31,8.10
2018,06,05,08,32,12.90
2018,06,05,08,33,11.30
2018,06,05,08,34,9.60
2018,06,05,08,35,6.40
2018,06,05,08,36,6.40
2018,06,05,08,37,6.40
2018,06,05,08,38,11.30
2018,06,05,08,39,9.60
2018,06,05,08,40,9.60
2018,06,05,08,41,4.80
2018,06,05,08,42,6.40
2018,06,05,08,43,9.60
2018,06,05,08,44,6.40
2018,06,05,08,45,12.90
2018,06,05,08,46,11.30
2018,06,05,08,47,6.40
2018,06,05,08,48,6.40
2018,06,05,08,49,9.60
2018,06,05,08,50,11.30
2018,06,05,08,51,11.30
2018,06,05,08,52,11.30
2018,06,05,08,53,9.60
2018,06,05,08,54,14.50
2018,06,05,08,55,11.30
2018,06,05,08,56,9.60
2018,06,05,08,57,9.60
2018,06,05,08,58,4.80
2018,06,05,08,59,11.30
2018,06,05,09,00,11.30
2018,06,05,09,01,9.60
2018,06,05,09,02,11.30
2018,06,05,09,03,12.90
2018,06,05,09,04,12.90
2018,06,05,09,05,12.90
2018,06,05,09,06,14.50
2018,06,05,09,07,11.30
2018,06,05,09,08,11.30
2018,06,05,09,09,11.30
2018,06,05,09,10,9.60
2018,06,05,09,11,12.90
2018,06,05,09,12,11.30
2018,06,05,09,13,11.30
2018,06,05,09,14,9.60
2018,06,05,09,15,6.40
2018,06,05,09,16,4.80
2018,06,05,09,17,6.40
2018,06,05,09,18,9.60
2018,06,05,09,19,11.30
2018,06,05,09,20,12.90
2018,06,05,09,21,11.30
2018,06,05,09,22,9.60
2018,06,05,09,23,9.60
2018,06,05,09,24,6.40
2018,06,05,09,25,6.40
2018,06,05,09,26,9.60
2018,06,05,09,27,11.30
2018,06,05,09,28,8.10
2018,06,05,09,29,12.90
2018,06,05,09,30,11.30
2018,06,05,09,31,11.30
2018,06,05,09,32,14.50
2018,06,05,09,33,12.90
2018,06,05,09,34,14.50
2018,06,05,09,35,14.50
2018,06,05,09,36,11.30
2018,06,05,09,37,9.60
2018,06,05,09,38,17.70
2018,06,05,09,39,14.50
2018,06,05,09,40,12.90
2018,06,05,09,41,12.90
2018,06,05,09,42,12.90
2018,06,05,09,43,19.30
2018,06,05,09,44,14.50
2018,06,05,09,45,19.30
2018,06,05,09,46,17.70
2018,06,05,09,47,24.20
2018,06,05,09,48,11.30
2018,06,05,09,49,19.30
2018,06,05,09,50,19.30
2018,06,05,09,51,16.10
2018,06,05,09,52,19.30
2018,06,05,09,53,29.00
2018,06,05,09,54,20.90
2018,06,05,09,55,17.70
2018,06,05,09,56,25.70
2018,06,05,09,57,20.90
2018,06,05,09,58,17.70
2018,06,05,09,59,22.50
2018,06,05,10,00,20.90
2018,06,05,10,01,14.50
2018,06,05,10,02,17.70
2018,06,05,10,03,20.90
2018,06,05,10,04,20.90
2018,06,05,10,05,20.90
2018,06,05,10,06,16.10
2018,06,05,10,07,19.30
2018,06,05,10,08,20.90
2018,06,05,10,09,20.90
2018,06,05,10,10,25.70
2018,06,05,10,11,17.70
2018,06,05,10,12,17.70
2018,06,05,10,13,20.90
2018,06,05,10,14,24.20
2018,06,05,10,15,27.40
2018,06,05,10,16,27.40
2018,06,05,10,17,29.00
2018,06,05,10,18,25.70
2018,06,05,10,19,22.50
2018,06,05,10,20,22.50
2018,06,05,10,21,19.30
2018,06,05,10,22,29.00
2018,06,05,10,23,32.20
2018,06,05,10,24,27.40
2018,06,05,10,25,24.20
2018,06,05,10,26,22.50
2018,06,05,10,27,24.20
2018,06,05,10,28,25.70
2018,06,05,10,29,25.70
2018,06,05,10,30,24.20
2018,06,05,10,31,19.30
2018,06,05,10,32,19.30
2018,06,05,10,33,24.20
2018,06,05,10,34,29.00
2018,06,05,10,35,20.90
2018,06,05,10,36,22.50
2018,06,05,10,37,24.20
2018,06,05,10,38,20.90
2018,06,05,10,39,22.50
2018,06,05,10,40,25.70
2018,06,05,10,41,29.00
2018,06,05,10,42,30.60
2018,06,05,10,43,20.90
2018,06,05,10,44,25.70
2018,06,05,10,45,30.60
2018,06,05,10,46,20.90
2018,06,05,10,47,27.40
2018,06,05,10,48,35.40
2018,06,05,10,49,25.70
2018,06,05,10,50,25.70
2018,06,05,10,51,19.30
2018,06,05,10,52,27.40
2018,06,05,10,53,22.50
2018,06,05,10,54,24.20
2018,06,05,10,55,24.20
2018,06,05,10,56,27.40
2018,06,05,10,57,25.70
2018,06,05,10,58,27.40
2018,06,05,10,59,24.20
2018,06,05,11,00,25.70
2018,06,05,11,01,22.50
2018,06,05,11,02,20.90
2018,06,05,11,03,20.90
2018,06,05,11,04,25.70
2018,06,05,11,05,27.40
2018,06,05,11,06,24.20
2018,06,05,11,07,19.30
2018,06,05,11,08,29.00
2018,06,05,11,09,29.00
2018,06,05,11,10,22.50
2018,06,05,11,11,29.00
2018,06,05,11,12,30.60
2018,06,05,11,13,25.70
2018,06,05,11,14,27.40
2018,06,05,11,15,30.60
2018,06,05,11,16,22.50
2018,06,05,11,17,24.20
2018,06,05,11,18,25.70
2018,06,05,11,19,29.00
2018,06,05,11,20,30.60
2018,06,05,11,21,35.40
2018,06,05,11,22,30.60
2018,06,05,11,23,32.20
2018,06,05,11,24,29.00
2018,06,05,11,25,25.70
2018,06,05,11,26,24.20
2018,06,05,11,27,37.00
2018,06,05,11,28,35.40
2018,06,05,11,29,37.00
2018,06,05,11,30,37.00
2018,06,05,11,31,38.60
2018,06,05,11,32,27.40
2018,06,05,11,33,30.60
2018,06,05,11,34,35.40
2018,06,05,11,35,37.00
2018,06,05,11,36,38.60
2018,06,05,11,37,35.40
2018,06,05,11,38,33.80
2018,06,05,11,39,27.40
2018,06,05,11,40,32.20
2018,06,05,11,41,40.20
2018,06,05,11,42,40.20
2018,06,05,11,43,32.20
2018,06,05,11,44,32.20
2018,06,05,11,45,32.20
2018,06,05,11,46,30.60
2018,06,05,11,47,30.60
2018,06,05,11,48,33.80
2018,06,05,11,49,38.60
2018,06,05,11,50,38.60
2018,06,05,11,51,38.60
2018,06,05,11,52,38.60
2018,06,05,11,53,37.00
2018,06,05,11,54,32.20
2018,06,05,11,55,37.00
2018,06,05,11,56,40.20
2018,06,05,11,57,33.80
2018,06,05,11,58,40.20
2018,06,05,11,59,41.80
2018,06,05,12,00,33.80
2018,06,05,12,01,45.10
2018,06,05,12,02,46.70
2018,06,05,12,03,45.10
2018,06,05,12,04,37.00
2018,06,05,12,05,38.60
2018,06,05,12,06,46.70
2018,06,05,12,07,38.60
2018,06,05,12,08,38.60
2018,06,05,12,09,32.20
2018,06,05,12,10,32.20
2018,06,05,12,11,38.60
2018,06,05,12,12,38.60
2018,06,05,12,13,35.40
2018,06,05,12,14,37.00
2018,06,05,12,15,45.10
2018,06,05,12,16,40.20
2018,06,05,12,17,38.60
2018,06,05,12,18,38.60
2018,06,05,12,19,32.20
2018,06,05,12,20,41.80
2018,06,05,12,21,41.80
2018,06,05,12,22,41.80
2018,06,05,12,23,38.60
2018,06,05,12,24,48.30
2018,06,05,12,25,35.40
2018,06,05,12,26,45.10
2018,06,05,12,27,41.80
2018,06,05,12,28,35.40
2018,06,05,12,29,33.80
2018,06,05,12,30,29.00
2018,06,05,12,31,25.70
2018,06,05,12,32,32.20
2018,06,05,12,33,40.20
2018,06,05,12,34,45.10
2018,06,05,12,35,38.60
2018,06,05,12,36,49.90
2018,06,05,12,37,46.70
2018,06,05,12,38,56.30
2018,06,05,12,39,33.80
2018,06,05,12,40,37.00
2018,06,05,12,41,46.70
2018,06,05,12,42,43.50
2018,06,05,12,43,45.10
2018,06,05,12,44,48.30
2018,06,05,12,45,43.50
2018,06,05,12,46,35.40
2018,06,05,12,47,48.30
2018,06,05,12,48,40.20
2018,06,05,12,49,43.50
2018,06,05,12,50,35.40
2018,06,05,12,51,40.20
2018,06,05,12,52,43.50
2018,06,05,12,53,40.20
2018,06,05,12,54,37.00
2018,06,05,12,55,35.40
2018,06,05,12,56,40.20
2018,06,05,12,57,41.80
2018,06,05,12,58,45.10
2018,06,05,12,59,46.70
2018,06,05,13,00,43.50
2018,06,05,13,01,45.10
2018,06,05,13,02,45.10
2018,06,05,13,03,49.90
2018,06,05,13,04,46.70
2018,06,05,13,05,37.00
2018,06,05,13,06,35.40
2018,06,05,13,07,33.80
2018,06,05,13,08,35.40
2018,06,05,13,09,45.10
2018,06,05,13,10,48.30
2018,06,05,13,11,37.00
2018,06,05,13,12,30.60
2018,06,05,13,13,29.00
2018,06,05,13,14,30.60
2018,06,05,13,15,40.20
2018,06,05,13,16,35.40
2018,06,05,13,17,32.20
2018,06,05,13,18,37.00
2018,06,05,13,19,38.60
2018,06,05,13,20,46.70
2018,06,05,13,21,43.50
2018,06,05,13,22,27.40
2018,06,05,13,23,40.20
2018,06,05,13,24,46.70
2018,06,05,13,25,40.20
2018,06,05,13,26,40.20
2018,06,05,13,27,35.40
2018,06,05,13,28,35.40
2018,06,05,13,29,46.70
2018,06,05,13,30,40.20
2018,06,05,13,31,45.10
2018,06,05,13,32,37.00
2018,06,05,13,33,43.50
2018,06,05,13,34,40.20
2018,06,05,13,35,38.60
2018,06,05,13,36,49.90
2018,06,05,13,37,35.40
2018,06,05,13,38,41.80
2018,06,05,13,39,40.20
2018,06,05,13,40,37.00
2018,06,05,13,41,41.80
2018,06,05,13,42,37.00
2018,06,05,13,43,43.50
2018,06,05,13,44,45.10
2018,06,05,13,45,45.10
2018,06,05,13,46,43.50
2018,06,05,13,47,40.20
2018,06,05,13,48,43.50
2018,06,05,13,49,41.80
2018,06,05,13,50,37.00
2018,06,05,13,51,45.10
2018,06,05,13,52,51.50
2018,06,05,13,53,49.90
2018,06,05,13,54,41.80
2018,06,05,13,55,43.50
2018,06,05,13,56,45.10
2018,06,05,13,57,51.50
2018,06,05,13,58,45.10
2018,06,05,13,59,46.70
2018,06,05,14,00,40.20
2018,06,05,14,01,33.80
2018,06,05,14,02,41.80
2018,06,05,14,03,51.50
2018,06,05,14,04,43.50
2018,06,05,14,05,48.30
2018,06,05,14,06,41.80
2018,06,05,14,07,40.20
2018,06,05,14,08,37.00
2018,06,05,14,09,45.10
2018,06,05,14,10,40.20
2018,06,05,14,11,48.30
2018,06,05,14,12,41.80
2018,06,05,14,13,53.10
2018,06,05,14,14,53.10
2018,06,05,14,15,43.50
2018,06,05,14,16,49.90
2018,06,05,14,17,48.30
2018,06,05,14,18,33.80
2018,06,05,14,19,43.50
2018,06,05,14,20,46.70
2018,06,05,14,21,48.30
2018,06,05,14,22,46.70
2018,06,05,14,23,43.50
2018,06,05,14,24,46.70
2018,06,05,14,25,48.30
2018,06,05,14,26,51.50
2018,06,05,14,27,45.10
2018,06,05,14,28,51.50
2018,06,05,14,29,53.10
2018,06,05,14,30,49.90
2018,06,05,14,31,46.70
2018,06,05,14,32,45.10
2018,06,05,14,33,46.70
2018,06,05,14,34,41.80
2018,06,05,14,35,45.10
2018,06,05,14,36,45.10
2018,06,05,14,37,45.10
2018,06,05,14,38,41.80
2018,06,05,14,39,37.00
2018,06,05,14,40,40.20
2018,06,05,14,41,48.30
2018,06,05,14,42,43.50
2018,06,05,14,43,53.10
2018,06,05,14,44,43.50
2018,06,05,14,45,40.20
2018,06,05,14,46,46.70
2018,06,05,14,47,54.70
2018,06,05,14,48,57.90
2018,06,05,14,49,41.80
2018,06,05,14,50,35.40
2018,06,05,14,51,53.10
2018,06,05,14,52,49.90
2018,06,05,14,53,49.90
2018,06,05,14,54,46.70
2018,06,05,14,55,41.80
2018,06,05,14,56,46.70
2018,06,05,14,57,38.60
2018,06,05,14,58,48.30
2018,06,05,14,59,48.30
2018,06,05,15,00,46.70
2018,06,05,15,01,49.90
2018,06,05,15,02,48.30
2018,06,05,15,03,51.50
2018,06,05,15,04,46.70
2018,06,05,15,05,41.80
2018,06,05,15,06,49.90
2018,06,05,15,07,32.20
2018,06,05,15,08,46.70
2018,06,05,15,09,46.70
2018,06,05,15,10,38.60
2018,06,05,15,11,40.20
2018,06,05,15,12,40.20
2018,06,05,15,13,43.50
2018,06,05,15,14,46.70
2018,06,05,15,15,41.80
2018,06,05,15,16,49.90
2018,06,05,15,17,38.60
2018,06,05,15,18,38.60
2018,06,05,15,19,33.80
2018,06,05,15,20,48.30
2018,06,05,15,21,37.00
2018,06,05,15,22,49.90
2018,06,05,15,23,46.70
2018,06,05,15,24,46.70
2018,06,05,15,25,49.90
2018,06,05,15,26,46.70
2018,06,05,15,27,41.80
2018,06,05,15,28,43.50
2018,06,05,15,29,46.70
2018,06,05,15,30,49.90
2018,06,05,15,31,62.70
2018,06,05,15,32,38.60
2018,06,05,15,33,51.50
2018,06,05,15,34,51.50
2018,06,05,15,35,53.10
2018,06,05,15,36,41.80
2018,06,05,15,37,40.20
2018,06,05,15,38,49.90
2018,06,05,15,39,54.70
2018,06,05,15,40,54.70
2018,06,05,15,41,45.10
2018,06,05,15,42,33.80
2018,06,05,15,43,43.50
2018,06,05,15,44,32.20
2018,06,05,15,45,38.60
2018,06,05,15,46,45.10
2018,06,05,15,47,45.10
2018,06,05,15,48,30.60
2018,06,05,15,49,30.60
2018,06,05,15,50,35.40
2018,06,05,15,51,33.80
2018,06,05,15,52,35.40
2018,06,05,15,53,35.40
2018,06,05,15,54,37.00
2018,06,05,15,55,41.80
2018,06,05,15,56,35.40
2018,06,05,15,57,38.60
2018,06,05,15,58,33.80
2018,06,05,15,59,38.60
2018,06,05,16,00,40.20
2018,06,05,16,01,46.70
2018,06,05,16,02,41.80
2018,06,05,16,03,35.40
2018,06,05,16,04,33.80
2018,06,05,16,05,30.60
2018,06,05,16,06,40.20
2018,06,05,16,07,35.40
2018,06,05,16,08,33.80
2018,06,05,16,09,35.40
2018,06,05,16,10,35.40
2018,06,05,16,11,25.70
2018,06,05,16,12,33.80
2018,06,05,16,13,45.10
2018,06,05,16,14,45.10
2018,06,05,16,15,38.60
2018,06,05,16,16,33.80
2018,06,05,16,17,41.80
2018,06,05,16,18,27.40
2018,06,05,16,19,35.40
2018,06,05,16,20,30.60
2018,06,05,16,21,41.80
2018,06,05,16,22,37.00
2018,06,05,16,23,30.60
2018,06,05,16,24,32.20
2018,06,05,16,25,33.80
2018,06,05,16,26,30.60
2018,06,05,16,27,35.40
2018,06,05,16,28,40.20
2018,06,05,16,29,32.20
2018,06,05,16,30,38.60
2018,06,05,16,31,33.80
2018,06,05,16,32,45.10
2018,06,05,16,33,40.20
2018,06,05,16,34,45.10
2018,06,05,16,35,43.50
2018,06,05,16,36,45.10
2018,06,05,16,37,30.60
2018,06,05,16,38,41.80
2018,06,05,16,39,48.30
2018,06,05,16,40,41.80
2018,06,05,16,41,38.60
2018,06,05,16,42,38.60
2018,06,05,16,43,38.60
2018,06,05,16,44,30.60
2018,06,05,16,45,33.80
2018,06,05,16,46,37.00
2018,06,05,16,47,37.00
2018,06,05,16,48,45.10
2018,06,05,16,49,35.40
2018,06,05,16,50,53.10
2018,06,05,16,51,33.80
2018,06,05,16,52,38.60
2018,06,05,16,53,37.00
2018,06,05,16,54,40.20
2018,06,05,16,55,38.60
2018,06,05,16,56,38.60
2018,06,05,16,57,37.00
2018,06,05,16,58,45.10
2018,06,05,16,59,41.80
2018,06,05,17,00,40.20
2018,06,05,17,01,43.50
2018,06,05,17,02,41.80
2018,06,05,17,03,38.60
2018,06,05,17,04,41.80
2018,06,05,17,05,48.30
2018,06,05,17,06,46.70
2018,06,05,17,07,41.80
2018,06,05,17,08,51.50
2018,06,05,17,09,38.60
2018,06,05,17,10,56.30
2018,06,05,17,11,37.00
2018,06,05,17,12,40.20
2018,06,05,17,13,48.30
2018,06,05,17,14,37.00
2018,06,05,17,15,46.70
2018,06,05,17,16,38.60
2018,06,05,17,17,49.90
2018,06,05,17,18,35.40
2018,06,05,17,19,32.20
2018,06,05,17,20,48.30
2018,06,05,17,21,40.20
2018,06,05,17,22,35.40
2018,06,05,17,23,43.50
2018,06,05,17,24,46.70
2018,06,05,17,25,38.60
2018,06,05,17,26,37.00
2018,06,05,17,27,37.00
2018,06,05,17,28,33.80
2018,06,05,17,29,29.00
2018,06,05,17,30,40.20
2018,06,05,17,31,35.40
2018,06,05,17,32,25.70
2018,06,05,17,33,37.00
2018,06,05,17,34,37.00
2018,06,05,17,35,37.00
2018,06,05,17,36,35.40
2018,06,05,17,37,37.00
2018,06,05,17,38,41.80
2018,06,05,17,39,29.00
2018,06,05,17,40,38.60
2018,06,05,17,41,35.40
2018,06,05,17,42,37.00
2018,06,05,17,43,35.40
2018,06,05,17,44,40.20
2018,06,05,17,45,46.70
2018,06,05,17,46,30.60
2018,06,05,17,47,41.80
2018,06,05,17,48,35.40
2018,06,05,17,49,33.80
2018,06,05,17,50,29.00
2018,06,05,17,51,35.40
2018,06,05,17,52,37.00
2018,06,05,17,53,35.40
2018,06,05,17,54,41.80
2018,06,05,17,55,46.70
2018,06,05,17,56,53.10
2018,06,05,17,57,37.00
2018,06,05,17,58,48.30
2018,06,05,17,59,45.10
2018,06,05,18,00,33.80
2018,06,05,18,01,35.40
2018,06,05,18,02,48.30
2018,06,05,18,03,40.20
2018,06,05,18,04,41.80
2018,06,05,18,05,37.00
2018,06,05,18,06,40.20
2018,06,05,18,07,27.40
2018,06,05,18,08,30.60
2018,06,05,18,09,48.30
2018,06,05,18,10,45.10
2018,06,05,18,11,33.80
2018,06,05,18,12,35.40
2018,06,05,18,13,24.20
2018,06,05,18,14,37.00
2018,06,05,18,15,27.40
2018,06,05,18,16,37.00
2018,06,05,18,17,27.40
2018,06,05,18,18,33.80
2018,06,05,18,19,35.40
2018,06,05,18,20,37.00
2018,06,05,18,21,46.70
2018,06,05,18,22,41.80
2018,06,05,18,23,43.50
2018,06,05,18,24,41.80
2018,06,05,18,25,32.20
2018,06,05,18,26,37.00
2018,06,05,18,27,37.00
2018,06,05,18,28,32.20
2018,06,05,18,29,32.20
2018,06,05,18,30,37.00
2018,06,05,18,31,30.60
2018,06,05,18,32,32.20
2018,06,05,18,33,32.20
2018,06,05,18,34,32.20
2018,06,05,18,35,25.70
2018,06,05,18,36,22.50
2018,06,05,18,37,20.90
2018,06,05,18,38,22.50
2018,06,05,18,39,16.10
2018,06,05,18,40,24.20
2018,06,05,18,41,25.70
2018,06,05,18,42,27.40
2018,06,05,18,43,30.60
2018,06,05,18,44,22.50
2018,06,05,18,45,24.20
2018,06,05,18,46,22.50
2018,06,05,18,47,27.40
2018,06,05,18,48,24.20
2018,06,05,18,49,27.40
2018,06,05,18,50,27.40
2018,06,05,18,51,29.00
2018,06,05,18,52,27.40
2018,06,05,18,53,33.80
2018,06,05,18,54,25.70
2018,06,05,18,55,22.50
2018,06,05,18,56,32.20
2018,06,05,18,57,25.70
2018,06,05,18,58,33.80
2018,06,05,18,59,25.70
2018,06,05,19,00,20.90
2018,06,05,19,01,24.20
2018,06,05,19,02,29.00
2018,06,05,19,03,27.40
2018,06,05,19,04,25.70
2018,06,05,19,05,22.50
2018,06,05,19,06,29.00
2018,06,05,19,07,27.40
2018,06,05,19,08,30.60
2018,06,05,19,09,20.90
2018,06,05,19,10,20.90
2018,06,05,19,11,22.50
2018,06,05,19,12,27.40
2018,06,05,19,13,33.80
2018,06,05,19,14,16.10
2018,06,05,19,15,16.10
2018,06,05,19,16,22.50
2018,06,05,19,17,25.70
2018,06,05,19,18,30.60
2018,06,05,19,19,30.60
2018,06,05,19,20,20.90
2018,06,05,19,21,24.20
2018,06,05,19,22,17.70
2018,06,05,19,23,24.20
2018,06,05,19,24,33.80
2018,06,05,19,25,20.90
2018,06,05,19,26,24.20
2018,06,05,19,27,27.40
2018,06,05,19,28,27.40
2018,06,05,19,29,19.30
2018,06,05,19,30,20.90
2018,06,05,19,31,27.40
2018,06,05,19,32,25.70
2018,06,05,19,33,16.10
2018,06,05,19,34,30.60
2018,06,05,19,35,25.70
2018,06,05,19,36,29.00
2018,06,05,19,37,20.90
2018,06,05,19,38,27.40
2018,06,05,19,39,17.70
2018,06,05,19,40,16.10
2018,06,05,19,41,22.50
2018,06,05,19,42,19.30
2018,06,05,19,43,22.50
2018,06,05,19,44,14.50
2018,06,05,19,45,16.10
2018,06,05,19,46,20.90
2018,06,05,19,47,19.30
2018,06,05,19,48,27.40
2018,06,05,19,49,25.70
2018,06,05,19,50,22.50
2018,06,05,19,51,19.30
2018,06,05,19,52,24.20
2018,06,05,19,53,20.90
2018,06,05,19,54,17.70
2018,06,05,19,55,19.30
2018,06,05,19,56,19.30
2018,06,05,19,57,22.50
2018,06,05,19,58,16.10
2018,06,05,19,59,27.40
2018,06,05,20,00,19.30
2018,06,05,20,01,20.90
2018,06,05,20,02,16.10
2018,06,05,20,03,16.10
2018,06,05,20,04,12.90
2018,06,05,20,05,16.10
2018,06,05,20,06,12.90
2018,06,05,20,07,25.70
2018,06,05,20,08,19.30
2018,06,05,20,09,24.20
2018,06,05,20,10,20.90
2018,06,05,20,11,19.30
2018,06,05,20,12,27.40
2018,06,05,20,13,20.90
2018,06,05,20,14,19.30
2018,06,05,20,15,22.50
2018,06,05,20,16,14.50
2018,06,05,20,17,29.00
2018,06,05,20,18,16.10
2018,06,05,20,19,22.50
2018,06,05,20,20,22.50
2018,06,05,20,21,20.90
2018,06,05,20,22,17.70
2018,06,05,20,23,16.10
2018,06,05,20,24,14.50
2018,06,05,20,25,20.90
2018,06,05,20,26,17.70
2018,06,05,20,27,17.70
2018,06,05,20,28,14.50
2018,06,05,20,29,16.10
2018,06,05,20,30,16.10
2018,06,05,20,31,19.30
2018,06,05,20,32,19.30
2018,06,05,20,33,20.90
2018,06,05,20,34,14.50
2018,06,05,20,35,19.30
2018,06,05,20,36,19.30
2018,06,05,20,37,17.70
2018,06,05,20,38,12.90
2018,06,05,20,39,17.70
2018,06,05,20,40,19.30
2018,06,05,20,41,14.50
2018,06,05,20,42,16.10
2018,06,05,20,43,12.90
2018,06,05,20,44,8.10
2018,06,05,20,45,12.90
2018,06,05,20,46,12.90
2018,06,05,20,47,19.30
2018,06,05,20,48,12.90
2018,06,05,20,49,11.30
2018,06,05,20,50,19.30
2018,06,05,20,51,17.70
2018,06,05,20,52,12.90
2018,06,05,20,53,16.10
2018,06,05,20,54,22.50
2018,06,05,20,55,20.90
2018,06,05,20,56,20.90
2018,06,05,20,57,17.70
2018,06,05,20,58,19.30
2018,06,05,20,59,16.10
2018,06,05,21,00,14.50
2018,06,05,21,01,12.90
2018,06,05,21,02,12.90
2018,06,05,21,03,12.90
2018,06,05,21,04,20.90
2018,06,05,21,05,24.20
2018,06,05,21,06,20.90
2018,06,05,21,07,19.30
2018,06,05,21,08,17.70
2018,06,05,21,09,22.50
2018,06,05,21,10,20.90
2018,06,05,21,11,20.90
2018,06,05,21,12,17.70
2018,06,05,21,13,17.70
2018,06,05,21,14,20.90
2018,06,05,21,15,22.50
2018,06,05,21,16,22.50
2018,06,05,21,17,22.50
2018,06,05,21,18,20.90
2018,06,05,21,19,20.90
2018,06,05,21,20,22.50
2018,06,05,21,21,20.90
2018,06,05,21,22,19.30
2018,06,05,21,23,19.30
2018,06,05,21,24,22.50
2018,06,05,21,25,19.30
2018,06,05,21,26,17.70
2018,06,05,21,27,17.70
2018,06,05,21,28,17.70
2018,06,05,21,29,17.70
2018,06,05,21,30,17.70
2018,06,05,21,31,12.90
2018,06,05,21,32,22.50
2018,06,05,21,33,22.50
2018,06,05,21,34,19.30
2018,06,05,21,35,16.10
2018,06,05,21,36,17.70
2018,06,05,21,37,17.70
2018,06,05,21,38,8.10
2018,06,05,21,39,9.60
2018,06,05,21,40,12.90
2018,06,05,21,41,12.90
2018,06,05,21,42,16.10
2018,06,05,21,43,9.60
2018,06,05,21,44,12.90
2018,06,05,21,45,14.50
2018,06,05,21,46,14.50
2018,06,05,21,47,9.60